Weather History for KCRX - December, 2013

Change the Weather History Date:

Sunday, December 1, 2013

  Actual Average Record
Temperature  
Mean Temperature 44 °F -  
Max Temperature 55 °F 58 °F 76 °F (1982)
Min Temperature 32 °F 33 °F 14 °F (1965)
Degree Days  
Heating Degree Days 22    
Moisture  
Dew Point 35 °F    
Average Humidity 63    
Maximum Humidity 93    
Minimum Humidity 47    
Precipitation  
Precipitation 0.00 in - - ()
Sea Level Pressure  
Sea Level Pressure 30.12 in    
Wind  
Wind Speed 4 mph (SSE)    
Max Wind Speed 9 mph    
Max Gust Speed -    
Visibility 10 miles    
Events      
Averages and records for this station are not official NWS values.
T = Trace of Precipitation, MM = Missing Value Source: NWS Daily Summary

Daily Weather History Graph

Daily Weather History Graph

Search for Another Location

Airport or City:

Trip Planner

Search our weather history database for the weather conditions in past years. The results will help you decide how hot, cold, wet, or windy it might be!

Date:

Astronomy

Dec. 01, 2013 Rise Set
Actual Time 6:44 AM CST 4:42 PM CST
Civil Twilight 6:16 AM CST 5:10 PM CST
Nautical Twilight 5:45 AM CST 5:41 PM CST
Astronomical Twilight 5:14 AM CST 6:12 PM CST
Moon 5:04 AM CST (12/1) 3:50 PM CST (12/1)
Length of Visible Light 10h 54m
Length of Day
9h 58m
Waning Crescent, 2% of the Moon is Illuminated
Dec 1
Waning Crescent
Dec 2
New
Dec 9
First Quarter
Dec 17
Full
Dec 25
Last Quarter

Hourly Weather History & Observations

Time (CST) Temp. Windchill Dew Point Humidity Pressure Visibility Wind Dir Wind Speed Gust Speed Precip Events Conditions
12:10 AM 42.8 °F 41.1 °F 28.4 °F 57% 30.24 in 10.0 mi South 3.5 mph - N/A   Clear
12:30 AM 39.2 °F 35.9 °F 28.4 °F 65% 30.23 in 10.0 mi SSE 4.6 mph - N/A   Clear
12:50 AM 37.4 °F - 28.4 °F 70% 30.23 in 10.0 mi Calm Calm - N/A   Clear
1:10 AM 35.6 °F - 28.4 °F 75% 30.24 in 10.0 mi Calm Calm - N/A   Clear
1:30 AM 35.6 °F - 30.2 °F 81% 30.24 in 10.0 mi Calm Calm - N/A   Clear
1:50 AM 33.8 °F - 32.0 °F 93% 30.24 in 10.0 mi Calm Calm - N/A   Clear
2:10 AM 32.0 °F - 28.4 °F 87% 30.24 in 10.0 mi Calm Calm - N/A   Clear
2:30 AM 32.0 °F - 28.4 °F 87% 30.23 in 10.0 mi Calm Calm - N/A   Clear
2:50 AM 32.0 °F 27.5 °F 30.2 °F 93% 30.23 in 10.0 mi SSE 4.6 mph - N/A   Mostly Cloudy
3:10 AM 35.6 °F 30.7 °F 32.0 °F 87% 30.23 in 10.0 mi SSE 5.8 mph - N/A   Overcast
3:30 AM 37.4 °F - 32.0 °F 81% 30.23 in 10.0 mi Calm Calm - N/A   Overcast
3:50 AM 37.4 °F 34.9 °F 32.0 °F 81% 30.23 in 10.0 mi SE 3.5 mph - N/A   Overcast
4:10 AM 39.2 °F - 33.8 °F 81% 30.22 in 10.0 mi Calm Calm - N/A   Overcast
4:30 AM 39.2 °F 37.0 °F 32.0 °F 75% 30.21 in 10.0 mi SSE 3.5 mph - N/A   Overcast
4:50 AM 39.2 °F - 32.0 °F 75% 30.22 in 10.0 mi Calm Calm - N/A   Overcast
5:10 AM 41.0 °F - 32.0 °F 70% 30.22 in 10.0 mi Calm Calm - N/A   Overcast
5:30 AM 41.0 °F - 32.0 °F 70% 30.22 in 10.0 mi Calm Calm - N/A   Overcast
5:50 AM 41.0 °F - 32.0 °F 70% 30.22 in 10.0 mi Calm Calm - N/A   Overcast
6:10 AM 41.0 °F 39.0 °F 32.0 °F 70% 30.21 in 10.0 mi SE 3.5 mph - N/A   Overcast
6:30 AM 41.0 °F 38.0 °F 32.0 °F 70% 30.20 in 10.0 mi SE 4.6 mph - N/A   Overcast
6:50 AM 41.0 °F 38.0 °F 32.0 °F 70% 30.21 in 10.0 mi SE 4.6 mph - N/A   Overcast
7:10 AM 41.0 °F 39.0 °F 32.0 °F 70% 30.20 in 10.0 mi SE 3.5 mph - N/A   Overcast
7:30 AM 44.6 °F 42.2 °F 32.0 °F 61% 30.21 in 10.0 mi SSE 4.6 mph - N/A   Overcast
7:50 AM 44.6 °F 42.2 °F 32.0 °F 61% 30.21 in 10.0 mi SE 4.6 mph - N/A   Overcast
8:10 AM 44.6 °F 41.4 °F 32.0 °F 61% 30.21 in 10.0 mi SSE 5.8 mph - N/A   Overcast
8:30 AM 44.6 °F 41.4 °F 32.0 °F 61% 30.21 in 10.0 mi SSE 5.8 mph - N/A   Overcast
8:50 AM 46.4 °F 42.9 °F 32.0 °F 57% 30.21 in 10.0 mi SSE 6.9 mph - N/A   Overcast
9:10 AM 46.4 °F 42.4 °F 32.0 °F 57% 30.21 in 10.0 mi South 8.1 mph - N/A   Overcast
9:30 AM 48.2 °F - 32.0 °F 54% 30.21 in 10.0 mi South 5.8 mph - N/A   Overcast
9:50 AM 48.2 °F - 32.0 °F 54% 30.21 in 10.0 mi South 8.1 mph - N/A   Overcast
10:10 AM 50.0 °F - 32.0 °F 50% 30.20 in 10.0 mi South 6.9 mph - N/A   Overcast
10:30 AM 51.8 °F - 32.0 °F 47% 30.19 in 10.0 mi South 4.6 mph - N/A   Overcast
10:50 AM 51.8 °F - 32.0 °F 47% 30.18 in 10.0 mi South 4.6 mph - N/A   Overcast
11:10 AM 53.6 °F - 33.8 °F 47% 30.15 in 10.0 mi South 9.2 mph - N/A   Overcast
11:30 AM 53.6 °F - 35.6 °F 51% 30.14 in 10.0 mi South 5.8 mph - N/A   Overcast
11:50 AM 53.6 °F - 35.6 °F 51% 30.13 in 10.0 mi South 8.1 mph - N/A   Overcast
12:10 PM 53.6 °F - 35.6 °F 51% 30.12 in 10.0 mi South 6.9 mph - N/A   Overcast
12:30 PM 55.4 °F - 35.6 °F 47% 30.11 in 10.0 mi South 6.9 mph - N/A   Overcast
12:50 PM 55.4 °F - 37.4 °F 51% 30.09 in 10.0 mi South 8.1 mph - N/A   Overcast
1:10 PM 55.4 °F - 37.4 °F 51% 30.09 in 10.0 mi South 6.9 mph - N/A   Scattered Clouds
1:30 PM 55.4 °F - 37.4 °F 51% 30.08 in 10.0 mi South 5.8 mph - N/A   Mostly Cloudy
1:50 PM 55.4 °F - 37.4 °F 51% 30.07 in 10.0 mi South 6.9 mph - N/A   Overcast
2:10 PM 55.4 °F - 37.4 °F 51% 30.07 in 10.0 mi South 8.1 mph - N/A   Overcast
2:30 PM 55.4 °F - 37.4 °F 51% 30.06 in 10.0 mi South 4.6 mph - N/A   Overcast
2:50 PM 55.4 °F - 37.4 °F 51% 30.05 in 10.0 mi South 5.8 mph - N/A   Overcast
3:10 PM 55.4 °F - 37.4 °F 51% 30.05 in 10.0 mi South 4.6 mph - N/A   Overcast
3:30 PM 55.4 °F - 37.4 °F 51% 30.05 in 10.0 mi South 5.8 mph - N/A   Overcast
3:50 PM 53.6 °F - 37.4 °F 54% 30.04 in 10.0 mi South 8.1 mph - N/A   Overcast
4:10 PM 53.6 °F - 37.4 °F 54% 30.04 in 10.0 mi South 8.1 mph - N/A   Overcast
4:30 PM 53.6 °F - 37.4 °F 54% 30.04 in 10.0 mi South 8.1 mph - N/A   Overcast
4:50 PM 53.6 °F - 37.4 °F 54% 30.04 in 10.0 mi South 6.9 mph - N/A   Overcast
5:10 PM 53.6 °F - 37.4 °F 54% 30.03 in 10.0 mi North - - N/A   Overcast
5:30 PM 51.8 °F - 37.4 °F 58% 30.03 in 10.0 mi SSE 4.6 mph - N/A   Overcast
5:50 PM 51.8 °F - 37.4 °F 58% 30.03 in 10.0 mi SSE 3.5 mph - N/A   Overcast
6:10 PM 50.0 °F - 37.4 °F 62% 30.02 in 10.0 mi Calm Calm - N/A   Overcast
6:30 PM 51.8 °F - 39.2 °F 62% 30.02 in 10.0 mi SSE 3.5 mph - N/A   Overcast
6:50 PM 50.0 °F - 39.2 °F 66% 30.02 in 10.0 mi Calm Calm - N/A   Overcast
7:10 PM 51.8 °F - 39.2 °F 62% 30.01 in 10.0 mi SSE 3.5 mph - N/A   Overcast
7:30 PM 51.8 °F - 39.2 °F 62% 30.01 in 10.0 mi South 3.5 mph - N/A   Overcast
7:50 PM 50.0 °F - 39.2 °F 66% 30.01 in 10.0 mi Calm Calm - N/A   Overcast
8:10 PM 50.0 °F - 41.0 °F 71% 30.01 in 10.0 mi Calm Calm - N/A   Overcast
8:30 PM 50.0 °F - 41.0 °F 71% 30.00 in 10.0 mi SSE 3.5 mph - N/A   Overcast
8:50 PM 50.0 °F - 41.0 °F 71% 30.00 in 10.0 mi SSE 3.5 mph - N/A   Overcast
9:10 PM 50.0 °F - 39.2 °F 66% 29.99 in 10.0 mi South 5.8 mph - N/A   Overcast
9:30 PM 50.0 °F - 39.2 °F 66% 29.98 in 10.0 mi South 5.8 mph - N/A   Overcast
9:50 PM 51.8 °F - 39.2 °F 62% 29.97 in 10.0 mi South 5.8 mph - N/A   Overcast
10:10 PM 50.0 °F - 39.2 °F 66% 29.98 in 10.0 mi South 4.6 mph - N/A   Overcast
10:30 PM 51.8 °F - 39.2 °F 62% 29.97 in 10.0 mi South 4.6 mph - N/A   Overcast
10:50 PM 51.8 °F - 39.2 °F 62% 29.97 in 10.0 mi South 6.9 mph - N/A   Overcast
11:10 PM 50.0 °F - 41.0 °F 71% 29.96 in 10.0 mi South 5.8 mph - N/A   Overcast
11:30 PM 50.0 °F - 39.2 °F 66% 29.95 in 10.0 mi South 6.9 mph - N/A   Overcast
11:50 PM 51.8 °F - 41.0 °F 67% 29.95 in 10.0 mi South 4.6 mph - N/A   Overcast